Orbital Elements at Epoch 2459000.5 (2020-May-31.0) TDB
Reference: JPL 22 (heliocentric ecliptic J2000)
Element | Value | Uncertainty (1-sigma) | Units |
e | .2339568565304439 | 5.1293e-08 | |
a | 2.605068546682858 | 1.6033e-08 | au |
q | 1.995594898454605 | 1.423e-07 | au |
i | 14.80060661157263 | 5.3738e-06 | deg |
node | 53.62275659309247 | 1.6647e-05 | deg |
peri | 24.04427287571741 | 2.0829e-05 | deg |
M | 278.6813838429938 | 1.3624e-05 | deg |
tp | 2459347.408258234888 (2021-May-12.90825824) | 6.0077e-05 | TDB |
period | 1535.773465739182 4.20 | 1.4178e-05 3.882e-08 | d yr |
n | .234409571483727 | 2.164e-09 | deg/d |
Q | 3.214542194911112 | 1.9784e-08 | au |
|
| | Orbit Determination Parameters
Additional Information
|